User: anonymous   Login
Location: Unspecified
(0.0000°N, 0.0000°E)
Time: 00:50:49
(UTC+00:00)
Language:

TBA - TO BE ASSIGNED - Orbit

View from above orbital plane
View from above orbital plane
View from above satellite
View from above satellite

Ground track
Ground track

The orbit is defined by the following mean orbital elements,

1 68228U          26145.23593255 +.00000000 +00000-0 +58274-3 0 00000
2 68228  97.2864  20.7560 0001876  94.2269 265.9188 15.33451246    01
Epoch (UTC): 25 May 2026 05:39:44
Eccentricity: 0.0001876
inclination: 97.2864°
perigee height: 464 km
apogee height: 467 km
right ascension of ascending node: 20.7560°
argument of perigee: 94.2269°
revolutions per day: 15.33451246
mean anomaly at epoch: 265.9188°

The dashed part of the orbit path shows where the satellite is in the earth's shadow,  

DLR